Home > Time Zones > World Clock > Weather > Oman > Seeb > Past weeks

Flag for Oman Weather past 2 weeks in Seeb, Oman

Now
90 °F

Clear.


Feels Like: 108 °F
Forecast: 89 / 95 °F
Wind: 18 mph from Northeast

Location: International Airport

Current Time: Jul 31, 2014 at 3:46:06 PM

Latest Report: Jul 31, 2014 at 2:50 PM


Visibility: 6 mi

Pressure: 29.45 "Hg

Humidity: 75%

Dew point: 81 °F

Location of SeebLocation

Historic Weather in Seeb — Graph

°F

Seeb temperature yesterday

Maximum temperature yesterday: 93 °F (at 11:50 AM)
Minimum temperature yesterday: 86 °F (at 6:50 AM)
Average temperature yesterday: 89 °F

Past Weeks' High & Low Weather Summary

 TemperatureHumidityPressure
High108 °F (Jul 17, 8:50 AM)100% (Jul 22, 4:50 AM)29.65 "Hg (Jul 22, 4:50 AM)
Low84 °F (Jul 22, 4:50 AM)17% (Jul 25, 1:50 AM)29.33 "Hg (Jul 17, 1:50 AM)
Average91 °F74%29.44 "Hg
* Reported Jul 16 1:50 PM — Jul 31 1:50 PM, Seeb, Weather by CustomWeather, © 2014

Note: Actual official high and low records may vary slightly from our data, if they occured in-between our weather recording intervals... More about our weather records

Advertising

Seeb weather history for previous 24 hours

 ConditionsComfort  
Time TempWeatherWind HumidityBarometerVisibility
1:50 PM
Jul 31
91 °FPassing clouds.18 mph71%29.45 "Hg6 mi
12:50 PM91 °FPassing clouds.16 mph75%29.47 "Hg5 mi
11:50 AM93 °FPassing clouds.12 mph71%29.47 "Hg5 mi
10:50 AM91 °FClear.15 mph75%29.50 "Hg5 mi
9:50 AM93 °FClear.6 mph67%29.50 "Hg4 mi
8:50 AM91 °FClear.5 mph71%29.50 "Hg4 mi
7:50 AM90 °FHaze.No wind75%29.50 "Hg3 mi
6:50 AM86 °FHaze.8 mph84%29.50 "Hg3 mi
5:50 AM84 °FHaze.6 mph94%29.50 "Hg3 mi
4:50 AM84 °FPassing clouds.15 mph89%29.50 "Hg4 mi
3:50 AM84 °FPassing clouds.14 mph94%29.47 "Hg4 mi
2:50 AM86 °FClear.5 mph89%29.47 "Hg5 mi
1:50 AM88 °FClear.2 mph84%29.47 "Hg5 mi
12:50 AM86 °FClear.2 mph89%29.47 "Hg5 mi
11:50 PM
Jul 30
88 °FClear.No wind84%29.47 "Hg5 mi
10:50 PM88 °FClear.3 mph84%29.50 "Hg5 mi
9:50 PM86 °FClear.2 mph89%29.50 "Hg5 mi
8:50 PM88 °FClear.2 mph84%29.47 "Hg5 mi
7:50 PM86 °FClear.3 mph89%29.47 "Hg5 mi
6:50 PM88 °FClear.7 mph84%29.45 "Hg5 mi
5:50 PM88 °FPassing clouds.13 mph84%29.45 "Hg6 mi
4:50 PM90 °FPassing clouds.15 mph79%29.45 "Hg6 mi
3:50 PM91 °FScattered clouds.15 mph75%29.45 "Hg6 mi
Weather by CustomWeather, © 2014

See weather overviewHow to use our weather pages